Location: Stark Bayou Observatory
(30.3992°N, 88.7844°W)
Time: 22:23:53
(UTC-06:00)

ISS - Visible Passes

Search period start: 19 January 2019 00:00
Search period end: 29 January 2019 00:00
Orbit: 404 x 410 km, 51.6° (Epoch: 20 January)

Date Brightness Start Highest point End Pass type
(mag) Time Alt. Az. Time Alt. Az. Time Alt. Az.
19 Jan -1.8 17:58:15 10° SSE 18:00:12 15° SE 18:01:51 11° E visible
19 Jan -0.9 19:33:30 10° WSW 19:34:36 18° W 19:34:36 18° W visible
20 Jan -3.7 18:41:51 10° SW 18:45:07 71° NW 18:45:52 48° NNE visible
21 Jan -3.4 17:50:38 10° SSW 17:53:48 47° SE 17:56:59 10° NE visible
21 Jan -0.8 19:28:47 10° WNW 19:29:47 13° NW 19:29:47 13° NW visible
22 Jan -1.8 18:36:15 10° W 18:38:59 24° NW 18:40:52 15° N visible
23 Jan -3.0 17:44:20 10° WSW 17:47:31 48° NW 17:50:43 10° NNE visible
24 Jan -0.9 18:32:14 10° NW 18:33:00 11° NNW 18:33:45 10° NNW visible
